When you browse on this site, cookies collect data to enhance your experience and personalize the content and advertising you see.
Visit our Privacy Policy to learn more. By continuing to use the site, you agree to this use of cookies and data.
  • în România
  • Lista ţărilor
  • Pe 7 zile
  • Temperatura apei
  • Meteo pe hartă
  • Widget-uri
  • user-avatar
    Intrare

    Meteo pe oră la La Palma

    Astăzi, 4 Iunie, Joi

    Timp Temperatura Precipitaţii Vânt Presiune Umiditate
    00:00 +26°C° 0 mm 1 m/s 758 mmHg 94%
    01:00 +24°C° 0 mm 0 m/s 758 mmHg 94%
    02:00 +26°C° 0 mm 1 m/s 758 mmHg 94%
    03:00 +26°C° 0 mm 1 m/s 757 mmHg 95%
    04:00 +26°C° 0 mm 1 m/s 757 mmHg 95%
    05:00 +26°C° 0 mm 1 m/s 757 mmHg 94%
    06:00 +26°C° 0 mm 1 m/s 757 mmHg 94%
    07:00 +26°C° 0 mm 1 m/s 758 mmHg 94%
    08:00 +29°C° 0 mm 1 m/s 758 mmHg 84%
    09:00 +29°C° 0 mm 0 m/s 758 mmHg 75%
    10:00 +31°C° 0 mm 0 m/s 758 mmHg 66%
    11:00 +34°C° 0 mm 1 m/s 758 mmHg 62%
    12:00 +35°C° 0 mm 1 m/s 757 mmHg 58%
    13:00 +35°C° 0 mm 1 m/s 757 mmHg 55%
    14:00 +34°C° 0.1 mm 1 m/s 756 mmHg 58%
    15:00 +35°C° 0.1 mm 2 m/s 756 mmHg 62%
    16:00 +34°C° 0.1 mm 2 m/s 755 mmHg 65%
    17:00 +31°C° 0 mm 2 m/s 755 mmHg 72%
    18:00 +30°C° 0 mm 2 m/s 756 mmHg 79%
    19:00 +28°C° 0 mm 2 m/s 756 mmHg 86%
    20:00 +28°C° 0 mm 2 m/s 757 mmHg 88%
    21:00 +27°C° 0 mm 1 m/s 757 mmHg 90%
    22:00 +27°C° 0 mm 1 m/s 758 mmHg 91%
    23:00 +27°C° 0 mm 1 m/s 758 mmHg 92%

    Mâine, 5 Iunie, Vineri

    Timp Temperatura Precipitaţii Vânt Presiune Umiditate
    00:00 +27°C° 0 mm 1 m/s 758 mmHg 93%
    01:00 +24°C° 0 mm 0 m/s 757 mmHg 93%
    02:00 +24°C° 0 mm 0 m/s 757 mmHg 94%
    03:00 +24°C° 0 mm 0 m/s 757 mmHg 95%
    04:00 +24°C° 0 mm 0 m/s 757 mmHg 96%
    05:00 +24°C° 0 mm 0 m/s 757 mmHg 94%
    06:00 +27°C° 0 mm 1 m/s 758 mmHg 93%
    07:00 +27°C° 0 mm 1 m/s 758 mmHg 91%
    08:00 +29°C° 0 mm 1 m/s 758 mmHg 84%
    09:00 +31°C° 0 mm 1 m/s 759 mmHg 76%
    10:00 +33°C° 0 mm 1 m/s 759 mmHg 68%
    11:00 +33°C° 0.2 mm 1 m/s 759 mmHg 66%
    12:00 +34°C° 0.2 mm 2 m/s 758 mmHg 65%
    13:00 +34°C° 0.2 mm 3 m/s 757 mmHg 64%
    14:00 +34°C° 0.3 mm 3 m/s 757 mmHg 67%
    15:00 +33°C° 0.3 mm 3 m/s 756 mmHg 70%
    16:00 +33°C° 0.3 mm 3 m/s 756 mmHg 72%
    17:00 +30°C° 0.1 mm 3 m/s 756 mmHg 77%
    18:00 +29°C° 0.1 mm 2 m/s 757 mmHg 82%
    19:00 +28°C° 0.1 mm 2 m/s 757 mmHg 87%
    20:00 +28°C° 0 mm 2 m/s 758 mmHg 88%
    21:00 +27°C° 0 mm 1 m/s 759 mmHg 89%
    22:00 +27°C° 0 mm 1 m/s 759 mmHg 90%
    23:00 +27°C° 0.4 mm 1 m/s 759 mmHg 91%

    Poimâine, 6 Iunie, Sâmbătă

    Timp Temperatura Precipitaţii Vânt Presiune Umiditate
    00:00 +27°C° 0.4 mm 1 m/s 759 mmHg 93%
    01:00 +26°C° 0.4 mm 1 m/s 758 mmHg 94%
    02:00 +26°C° 0 mm 1 m/s 758 mmHg 94%
    03:00 +26°C° 0 mm 1 m/s 758 mmHg 94%
    04:00 +26°C° 0 mm 1 m/s 757 mmHg 94%
    05:00 +26°C° 0 mm 1 m/s 758 mmHg 94%
    06:00 +26°C° 0 mm 1 m/s 758 mmHg 93%
    07:00 +27°C° 0 mm 1 m/s 758 mmHg 93%
    08:00 +29°C° 0 mm 1 m/s 759 mmHg 84%
    09:00 +29°C° 0 mm 0 m/s 759 mmHg 75%
    10:00 +31°C° 0 mm 0 m/s 759 mmHg 66%
    11:00 +33°C° 0.2 mm 1 m/s 759 mmHg 65%
    12:00 +35°C° 0.2 mm 2 m/s 758 mmHg 63%
    13:00 +35°C° 0.2 mm 3 m/s 757 mmHg 61%
    14:00 +34°C° 0.1 mm 3 m/s 757 mmHg 64%
    15:00 +34°C° 0.1 mm 3 m/s 757 mmHg 68%
    16:00 +33°C° 0.1 mm 4 m/s 756 mmHg 71%
    17:00 +31°C° 0.1 mm 3 m/s 757 mmHg 76%
    18:00 +30°C° 0.1 mm 3 m/s 757 mmHg 81%
    19:00 +28°C° 0.1 mm 3 m/s 758 mmHg 87%
    20:00 +28°C° 0.5 mm 2 m/s 758 mmHg 88%
    21:00 +28°C° 0.5 mm 2 m/s 759 mmHg 90%
    22:00 +27°C° 0.5 mm 2 m/s 759 mmHg 92%
    23:00 +27°C° 2 mm 2 m/s 759 mmHg 93%

    7 Iunie, Duminică

    Timp Temperatura Precipitaţii Vânt Presiune Umiditate
    00:00 +27°C° 2 mm 2 m/s 759 mmHg 95%
    01:00 +27°C° 2 mm 2 m/s 758 mmHg 96%
    02:00 +26°C° 0.1 mm 2 m/s 758 mmHg 96%
    03:00 +26°C° 0.1 mm 2 m/s 758 mmHg 96%
    04:00 +26°C° 0.1 mm 2 m/s 758 mmHg 96%
    05:00 +27°C° 0.1 mm 2 m/s 758 mmHg 95%
    06:00 +27°C° 0.1 mm 2 m/s 758 mmHg 95%
    07:00 +27°C° 0.1 mm 2 m/s 759 mmHg 94%
    08:00 +28°C° 0.5 mm 2 m/s 759 mmHg 90%
    09:00 +29°C° 0.5 mm 2 m/s 760 mmHg 85%
    10:00 +30°C° 0.5 mm 2 m/s 760 mmHg 81%
    11:00 +31°C° 0.7 mm 2 m/s 759 mmHg 77%
    12:00 +33°C° 0.7 mm 3 m/s 759 mmHg 72%
    13:00 +34°C° 0.7 mm 4 m/s 758 mmHg 68%
    14:00 +32°C° 0.8 mm 4 m/s 758 mmHg 74%
    15:00 +30°C° 0.8 mm 4 m/s 757 mmHg 80%
    16:00 +29°C° 0.8 mm 4 m/s 757 mmHg 86%
    17:00 +28°C° 0.6 mm 3 m/s 757 mmHg 90%
    18:00 +27°C° 0.6 mm 3 m/s 757 mmHg 93%
    19:00 +27°C° 0.6 mm 2 m/s 758 mmHg 96%
    20:00 +27°C° 0 mm 2 m/s 758 mmHg 96%
    21:00 +26°C° 0 mm 1 m/s 759 mmHg 96%
    22:00 +26°C° 0 mm 1 m/s 759 mmHg 96%
    23:00 +26°C° 0.2 mm 1 m/s 759 mmHg 97%

    8 Iunie, Luni

    Timp Temperatura Precipitaţii Vânt Presiune Umiditate
    00:00 +26°C° 0.2 mm 1 m/s 759 mmHg 97%
    01:00 +26°C° 0.2 mm 1 m/s 758 mmHg 97%
    02:00 +26°C° 1.6 mm 1 m/s 758 mmHg 97%
    03:00 +26°C° 1.6 mm 1 m/s 758 mmHg 97%
    04:00 +26°C° 1.6 mm 1 m/s 758 mmHg 98%
    05:00 +26°C° 1.5 mm 1 m/s 759 mmHg 97%
    06:00 +26°C° 1.5 mm 1 m/s 759 mmHg 97%
    07:00 +26°C° 1.5 mm 1 m/s 759 mmHg 97%
    08:00 +27°C° 0.4 mm 1 m/s 760 mmHg 92%
    09:00 +29°C° 0.4 mm 1 m/s 760 mmHg 87%
    10:00 +30°C° 0.4 mm 1 m/s 760 mmHg 81%
    11:00 +30°C° 1 mm 1 m/s 760 mmHg 82%
    12:00 +30°C° 1 mm 1 m/s 759 mmHg 83%
    13:00 +30°C° 1 mm 1 m/s 759 mmHg 84%
    14:00 +29°C° 0.7 mm 1 m/s 758 mmHg 87%
    15:00 +28°C° 0.7 mm 1 m/s 758 mmHg 90%
    16:00 +27°C° 0.7 mm 1 m/s 757 mmHg 94%
    17:00 +27°C° 0.1 mm 1 m/s 757 mmHg 95%
    18:00 +25°C° 0.1 mm 0 m/s 757 mmHg 96%
    19:00 +24°C° 0.1 mm 0 m/s 757 mmHg 96%
    20:00 +24°C° 0 mm 0 m/s 758 mmHg 97%
    21:00 +26°C° 0 mm 1 m/s 758 mmHg 97%
    22:00 +25°C° 0 mm 1 m/s 759 mmHg 98%
    23:00 +25°C° 0 mm 1 m/s 758 mmHg 98%

    9 Iunie, Marţi

    Timp Temperatura Precipitaţii Vânt Presiune Umiditate
    00:00 +23°C° 0 mm 0 m/s 758 mmHg 97%
    01:00 +23°C° 0 mm 0 m/s 758 mmHg 97%
    02:00 +23°C° 0 mm 0 m/s 758 mmHg 97%
    03:00 +23°C° 0 mm 0 m/s 758 mmHg 97%
    04:00 +23°C° 0 mm 0 m/s 758 mmHg 97%
    05:00 +25°C° 0 mm 1 m/s 758 mmHg 96%
    06:00 +25°C° 0 mm 1 m/s 758 mmHg 96%
    07:00 +26°C° 0 mm 1 m/s 759 mmHg 95%
    08:00 +28°C° 0.1 mm 1 m/s 759 mmHg 87%
    09:00 +30°C° 0.1 mm 1 m/s 759 mmHg 80%
    10:00 +31°C° 0.1 mm 1 m/s 759 mmHg 72%
    11:00 +32°C° 0.1 mm 1 m/s 759 mmHg 70%
    12:00 +32°C° 0.1 mm 2 m/s 758 mmHg 68%
    13:00 +34°C° 0.1 mm 3 m/s 758 mmHg 65%
    14:00 +33°C° 0.1 mm 3 m/s 757 mmHg 68%
    15:00 +33°C° 0.1 mm 3 m/s 757 mmHg 71%
    16:00 +31°C° 0.1 mm 3 m/s 756 mmHg 73%
    17:00 +30°C° 0 mm 3 m/s 757 mmHg 78%
    18:00 +29°C° 0 mm 2 m/s 757 mmHg 83%
    19:00 +27°C° 0 mm 2 m/s 757 mmHg 88%
    20:00 +27°C° 0 mm 2 m/s 757 mmHg 89%
    21:00 +27°C° 0 mm 2 m/s 758 mmHg 90%
    22:00 +27°C° 0 mm 2 m/s 758 mmHg 91%
    23:00 +26°C° 0.4 mm 1 m/s 758 mmHg 93%
    Arată mai mult